Regional Weather Roundup
Issued by NWS

Home | Current Version | Previous Version | Graphics & Text | Print | Product List | Glossary On
Versions: 1 2 3 4 5 6 7 8 9 10 11 12 13 14 15 16 17 18 19 20 21 22 23 24 25 26 27 28 29 30 31 32 33 34 35 36 37 38 39 40 41 42 43 44 45 46 47 48 49 50
624
ASUS45 KCYS 242010
RWRWY

WYOMING REGIONAL WEATHER ROUNDUP
NATIONAL WEATHER SERVICE CHEYENNE WY
100 PM MST FRI NOV 24 2017

NOTE:  "FAIR" INDICATES FEW OR NO CLOUDS BELOW 12,000 FEET
WITH NO SIGNIFICANT WEATHER AND/OR OBSTRUCTIONS TO VISIBILITY.

WYZ001-242100-
YELLOWSTONE NATIONAL PARK

CITY           SKY/WX    TMP DP  RH WIND       PRES   REMARKS
LK YELLOWSTONE   N/A     39  19  44 W14G26    30.03R WCI  31
W YELLOWSTONE  NOT AVBL

$$
WYZ002>013-054>058-071-098>099-242100-
NORTHERN WYOMING

CITY           SKY/WX    TMP DP  RH WIND       PRES   REMARKS
JACKSON        CLOUDY    46  36  68 SW7       30.03
CODY           FAIR      54  22  28 W16G31    29.89F
GREYBULL       FAIR      55  20  25 NW8       29.87S
WORLAND        PTSUNNY   52  19  27 W5        29.90F
SHERIDAN       FAIR      51  20  29 N16       29.89F
BUFFALO        FAIR      47  13  25 N17G25    29.90F
GILLETTE       FAIR      49  22  34 N20G26    29.88R
HULETT         FAIR      46  23  39 NW15G23   29.88S
NEWCASTLE      FAIR      46  28  49 NW21      29.88S

$$
WYZ014>020-022>026-101>103-242100-
CENTRAL WYOMING

CITY           SKY/WX    TMP DP  RH WIND       PRES   REMARKS
BIG PINEY      FAIR      47  34  60 N9        30.04R
PINEDALE       MOCLDY    41  36  81 NW10      30.05R
DUBOIS         FAIR      37  32  81 NW13G18   29.97R WCI  29
LANDER         PTSUNNY   46  42  86 SE15      29.91F
RIVERTON       PTSUNNY   46  41  82 CALM      29.93S
CASPER         PTSUNNY   47  39  74 E6        29.92S
DOUGLAS        PTSUNNY   45  36  70 NW10      29.94F

$$
WYZ021-027>030-104>119-242100-
SOUTHERN WYOMING

CITY           SKY/WX    TMP DP  RH WIND       PRES   REMARKS
EVANSTON       PTSUNNY   48  29  47 W24G33    30.09R
KEMMERER       FAIR      41  34  75 NW18G30   30.07S
FORT BRIDGER   CLOUDY    52  30  42 W26G35    30.09S
ROCK SPRINGS   PTSUNNY   51  28  41 W30G40    30.01F
DIXON          MOCLDY    54  32  42 W20       30.02S
RAWLINS        LGT RAIN  52  28  39 W32G40    29.97R
SARATOGA       MOCLDY    50  30  46 W17G32    30.01R
LARAMIE        PTSUNNY   50  32  50 NW24G35   29.95R
CHEYENNE       CLOUDY    51  35  54 N10       29.91R
TORRINGTON     FAIR      54  35  48 NW21G30   29.88R
PINE BLUFFS    FAIR      55  32  41 N18G24    29.90S

$$




USA.gov is the U.S. government's official web portal to all federal, state and local government web resources and services.